Terminal Aerodrome Forecast
Issued by NWS Upton, NY

Home | Current Version | Previous Version | Text Only | Print | Product List | Glossary On
Versions: 1 2 3 4 5 6 7 8 9 10 11 12 13 14 15 16 17 18 19 20 21 22 23 24 25 26 27 28 29 30 31
000
FTUS41 KOKX 160800 AAA
TAFJFK
TAF AMD
KJFK 160830Z 1609/1712 21006KT P6SM BKN040 BKN150
     FM161200 22005KT P6SM VCSH BKN040 OVC100
     FM161500 24007KT P6SM BKN060 BKN100
     FM162000 26008KT P6SM SCT060 SCT150
     FM170200 32007KT P6SM SCT250
     FM170500 36010KT P6SM SCT250=

USA.gov is the U.S. government's official web portal to all federal, state and local government web resources and services.